Regional Weather Roundup
Issued by NWS

Home | Current Version | Previous Version | Text Only | Print | Product List | Glossary Off
Versions: 1 2 3 4 5 6 7 8 9 10 11 12 13 14 15 16 17 18 19 20 21 22 23 24 25 26 27 28 29 30 31 32 33 34 35 36 37 38 39 40 41 42 43 44 45 46 47 48 49 50

000
ASUS43 KMPX 271410
RWRMN
WEATHER ROUNDUP FOR MINNESOTA
NATIONAL WEATHER SERVICE TWIN CITIES/CHANHASSEN MN
900 AM CDT FRI MAR 27 2015


NOTE: "FAIR" INDICATES FEW OR NO CLOUDS BELOW 12,000 FEET WITH NO
SIGNIFICANT WEATHER AND/OR OBSTRUCTIONS TO VISIBILITY. N/A MEANS
CURRENT SKY AND/OR WEATHER CONDITIONS ARE NOT AVAILABLE.

MNZ060>063-068>070-271500-
   Twin Cities Metro

CITY           SKY/WX    TMP DP  RH WIND       PRES   REMARKS
TWIN CITIES    SUNNY     23   5  46 NE5       30.28F WCI  17
ST PAUL        SUNNY     23   6  48 NE7       30.30F WCI  15
CRYSTAL        SUNNY     23   6  48 N5        30.28S WCI  17
BLAINE         SUNNY     23  10  58 NE6       30.28  WCI  16
LAKEVILLE      SUNNY     19   7  58 NE3       30.27S
EDEN PRAIRIE   SUNNY     22   4  46 NE7       30.28R WCI  13
SOUTH ST PAUL  SUNNY     24   6  45 N3        30.28F
LAKE ELMO      FAIR      23  10  58 NE6       30.28F WCI  16
$$
MNZ001>005-007-008-013>017-022>024-027-028-271500-
   Northwest Minnesota

CITY           SKY/WX    TMP DP  RH WIND       PRES   REMARKS
BEMIDJI        SUNNY     16   7  69 S3        30.23R
HALLOCK        MOSUNNY   19  12  73 S8        30.22S WCI   9
ROSEAU         MOSUNNY   21  12  68 S10       30.23S WCI  10
WARROAD        MOSUNNY   19  10  68 S7        30.23S WCI  10
THIEF RVR FALL SUNNY     21   9  58 S12       30.23S WCI   9
CROOKSTON      PTSUNNY   19  12  73 S9        30.25S WCI   9
FOSSTON        SUNNY     18   9  68 S8        30.23F WCI   7
DETROIT LAKES  SUNNY     18  14  86 CALM      30.24S
MOORHEAD       MOSUNNY   18  16  93 S5        30.27S WCI  11
PARK RAPIDS    SUNNY     17   5  59 SE5       30.23S WCI  10
MAHNOMEN       FAIR      18   8  65 S6        30.24S WCI  10
$$
MNZ006-009>011-018-025>026-271500-
   North Central Minnesota

CITY           SKY/WX    TMP DP  RH WIND       PRES   REMARKS
BAUDETTE       SUNNY     17   8  67 S8        30.23S WCI   7
FLAG ISLAND    SUNNY     10   3  72 SE6       30.23S WCI   1
INTL FALLS     SUNNY     13   7  77 SE3       30.25S
WASKISH        SUNNY     18   7  62 S6        30.24S WCI   9
BIG FORK       SUNNY     16   9  73 CALM      30.24F
LONGVILLE      SUNNY     16   9  73 SE5       30.24F WCI   9
GRAND RAPIDS   SUNNY     18   3  53 S3        30.24S
CRANE LAKE     SUNNY      9   5  85 CALM      30.28F
ORR            SUNNY     12   3  67 CALM      30.22R
COOK           SUNNY     12   7  79 CALM      30.25S
WALKER         FAIR      16   6  63 CALM      30.24S
$$
MNZ012-019>021-037-271500-
   Northeast Minnesota

CITY           SKY/WX    TMP DP  RH WIND       PRES   REMARKS
DULUTH         MOSUNNY   18   5  57 CALM      30.23F
ELY            SUNNY     10   3  72 CALM      30.24S
HIBBING        SUNNY     16   6  65 E3        30.25S
EVELETH        SUNNY     18   9  68 CALM      30.25S
DULUTH HARBOR  SUNNY     21  10  63 CALM      30.31S
TWO HARBORS    SUNNY     21   7  53 E3        30.24F
SILVER BAY     SUNNY     18   7  62 CALM      30.25S
GRAND MARAIS     N/A     15  -3  44 VRB6      30.32S WCI   6
G MARAIS ARPRT SUNNY      9  -8  47 N3        30.20S
$$
MNZ029>031-032-039>041-046>048-054>057-064-271500-
   West Central Minnesota

CITY           SKY/WX    TMP DP  RH WIND       PRES   REMARKS
FERGUS FALLS   SUNNY     19   7  58 S6        30.29F WCI  11
WHEATON        MOSUNNY   19  12  73 CALM      30.28F
MORRIS         SUNNY     19  14  79 CALM      30.26S
ALEXANDRIA     SUNNY     20   7  57 SE5       30.24F WCI  13
ELBOW LAKE     FAIR      19  10  69 SE5       30.25F WCI  12
WADENA         SUNNY     16   7  67 E5        30.23F WCI   9
GLENWOOD       SUNNY     21   9  58 E5        30.25F WCI  15
APPLETON       SUNNY     23  18  80 CALM      30.27F
BENSON         MOSUNNY   19  10  68 CALM      30.27S
ORTONVILLE     MOSUNNY   19  16  86 CALM      30.26F
MADISON        SUNNY     21  18  86 CALM      30.28S
WILLMAR        FAIR      19   7  58 E6        30.28S WCI  11
$$
MNZ033>034-036-042>043-049>051-058-059-271500-
   Central Minnesota

CITY           SKY/WX    TMP DP  RH WIND       PRES   REMARKS
ST CLOUD       SUNNY     20   4  50 E7        30.28S WCI  11
SAUK CENTRE    FAIR      19  10  66 CALM      30.27S
PAYNESVILLE    SUNNY     14   7  74 CALM      30.28S
AITKIN         SUNNY     21   9  58 CALM      30.25S
PINE RIVER     SUNNY     18   9  68 SE5       30.28S WCI  11
BRAINERD       SUNNY     18   5  57 SE6       30.26F WCI  10
STAPLES        SUNNY     16   3  57 SE5       30.25S WCI   9
LONG PRAIRIE   FAIR      19   7  58 E3        30.26F
LITTLE FALLS   SUNNY     21   3  45 SE5       30.27S WCI  15
LITCHFIELD     SUNNY     19   9  63 CALM      30.28S
BUFFALO        SUNNY     21   5  49 NE6       30.30R WCI  14
MAPLE LAKE     SUNNY     22  10  59 NE3       30.29S
$$
MNZ037-044-045-052-053-271500-
   East Central Minnesota

CITY           SKY/WX    TMP DP  RH WIND       PRES   REMARKS
PRINCETON      SUNNY     21   7  53 CALM      30.28S
MORA           SUNNY     19   5  53 NE3       30.30R
CAMBRIDGE      SUNNY     21   9  58 E3        30.27R
RUSH CITY      SUNNY     20   8  59 NE3       30.28S
MOOSE LAKE     SUNNY     19   5  53 CALM      30.25F
HINCKLEY       FAIR      21  10  63 CALM      30.28S
CLOQUET        SUNNY     18   3  53 CALM      30.24F
MCGREGOR       SUNNY     19   9  63 CALM      30.27R
$$
MNZ071>073-080-081-089-090-097-098-271500-
   Southwest Minnesota

CITY           SKY/WX    TMP DP  RH WIND       PRES   REMARKS
MONTEVIDEO     SUNNY     27  19  74 CALM      30.29S
GRANITE FALLS  SUNNY     20  13  71 CALM      30.30F
CANBY          SUNNY     21  16  79 CALM      30.29S
MARSHALL       SUNNY     19  12  73 NW5       30.28S WCI  13
REDWOOD FALLS  SUNNY     22   8  55 NE3       30.28S
OLIVIA         SUNNY     19  10  68 NE5       30.27F WCI  13
PIPESTONE      SUNNY     21  12  68 CALM      30.24S
WINDOM         SUNNY     21  12  68 CALM      30.26S
WORTHINGTON    SUNNY     19  12  73 N6        30.26S WCI  11
JACKSON        SUNNY     21  14  73 N3        30.26R
TRACY          SUNNY     22  15  72 N3        30.26F
SLAYTON        SUNNY     20  12  70 CALM      30.25F
$$
MNZ065>067-074>077-082>085-091>093-271500-
   South Central Minnesota

CITY           SKY/WX    TMP DP  RH WIND       PRES   REMARKS
MANKATO        SUNNY     21   7  53 N3        30.28R
NEW ULM        SUNNY     21   7  53 NE3       30.28S
ST JAMES       SUNNY     21  12  68 CALM      30.29R
FAIRMONT       SUNNY     23  12  63 N6        30.26R WCI  16
GLENCOE        SUNNY     19  10  68 CALM      30.28S
FARIBAULT      SUNNY     19   7  58 N6        30.27R WCI  11
OWATONNA       SUNNY     18   7  62 NE3       30.25S
WASECA         SUNNY     19   9  63 NE3       30.27S
ALBERT LEA     SUNNY     21  10  63 NE6       30.24S WCI  14
$$
MNZ078>079-086>088-094>096-271500-
   Southeast Minnesota

CITY           SKY/WX    TMP DP  RH WIND       PRES   REMARKS
ROCHESTER      SUNNY     15   6  67 N6        30.24S WCI   6
RED WING       SUNNY     25   7  46 NE5       30.28S WCI  19
STANTON        SUNNY     14   7  72 CALM      30.26F
DODGE CENTER   SUNNY     16   7  67 N5        30.24S WCI   9
WINONA         SUNNY     25  10  54 CALM      30.28S
AUSTIN         SUNNY     18   7  62 CALM      30.25R
PRESTON        SUNNY     17   7  65 CALM      30.25R
$$
ABBREVIATIONS USED IN REMARKS
   TC - TEMPERATURES IN CELSIUS
  WCI - WIND CHILL INDEX
   HX - HEAT INDEX
  VSB - VISIBILITY
$$



USA.gov is the U.S. government's official web portal to all federal, state and local government web resources and services.